Back to catalog

THORAD AGENA D DEB

AlivePO
NORAD 4822·DEBRIS·🇺🇸 United States

Launched Apr 8, 1970 from Vandenberg Space Force Base

Loading…

Next Passes (next 24 hours)

TLE

FreshSource: Space-Track

Epoch: Sep 14, 2026, 10:29 UTC

1 04822U 70025ED  26257.43700422  .00002513  00000-0  11787-2 0  9991
2 04822  99.4024  75.8653 0049756 206.5982 153.2638 14.20480160803266

Track THORAD AGENA D DEB in real time with AllMySat

Download on the App Store